Weather History for Jackson, MS

Change the Weather History Date:

Monday, January 9, 2012

  Actual Average Record
Temperature  
Mean Temperature 64 °F 45 °F  
Max Temperature 69 °F 56 °F 80 °F (1957)
Min Temperature 59 °F 35 °F 9 °F (1970)
Degree Days  
Heating Degree Days 1 20  
Month to date heating degree days 112 180  
Since 1 July heating degree days 983 1130  
Cooling Degree Days 0 0  
Month to date cooling degree days 0 0  
Year to date cooling degree days 0 0  
Growing Degree Days 14 (Base 50)    
Moisture  
Dew Point 62 °F    
Average Humidity 91    
Maximum Humidity 100    
Minimum Humidity 81    
Precipitation  
Precipitation 0.01 in 0.15 in 2.38 in (1977)
Month to date precipitation 0.71 1.32  
Year to date precipitation 0.71 1.32  
Sea Level Pressure  
Sea Level Pressure 30.08 in    
Wind  
Wind Speed 4 mph (SE)    
Max Wind Speed 10 mph    
Max Gust Speed 13 mph    
Visibility 4 miles    
Events Fog , Rain    
T = Trace of Precipitation, MM = Missing Value Source: NWS Daily Summary

Daily Weather History Graph

Daily Weather History Graph

Search for Another Location

Airport:

Trip Planner

Search our weather history database for the weather conditions in past years. The results will help you decide how hot, cold, wet, or windy it might be!

Date:

Astronomy

Jan. 09, 2012 Rise Set
Actual Time 7:02 AM CST 5:12 PM CST
Civil Twilight 6:35 AM CST 5:39 PM CST
Nautical Twilight 6:05 AM CST 6:09 PM CST
Astronomical Twilight 5:35 AM CST 6:39 PM CST
Moon 5:54 PM CST (1/9) 7:05 AM CST (1/9)
Length of Visible Light 11h 03m
Length of Day
10h 09m
Full, 100% of the Moon is Illuminated
Jan 9
Full
Jan 16
Last Quarter
Jan 23
New
Jan 30
First Quarter
Feb 7
Full

Hourly Weather History & Observations

Time (CST) Temp. Dew Point Humidity Pressure Visibility Wind Dir Wind Speed Gust Speed Precip Events Conditions
12:16 AM 62.6 °F 60.8 °F 94% 30.12 in 6.0 mi ESE 3.5 mph - 0.02 in   Mostly Cloudy
12:44 AM 62.6 °F 60.8 °F 94% 30.12 in 6.0 mi SE 5.8 mph - 0.02 in   Mostly Cloudy
12:54 AM 62.1 °F 61.0 °F 96% 30.11 in 6.0 mi SE 5.8 mph - 0.02 in   Overcast
1:54 AM 60.1 °F 60.1 °F 100% 30.11 in 5.0 mi SE 3.5 mph - N/A   Mostly Cloudy
2:43 AM 60.8 °F 59.0 °F 94% 30.10 in 8.0 mi ESE 5.8 mph - N/A   Mostly Cloudy
2:54 AM 61.0 °F 60.1 °F 97% 30.09 in 8.0 mi SSE 4.6 mph - N/A   Overcast
3:14 AM 62.6 °F 60.8 °F 94% 30.10 in 6.0 mi South 3.5 mph - N/A   Overcast
3:54 AM 62.1 °F 61.0 °F 96% 30.09 in 2.0 mi Calm Calm - N/A   Overcast
4:04 AM 60.8 °F 60.8 °F 100% 30.10 in 1.2 mi South 3.5 mph - N/A   Overcast
4:15 AM 60.8 °F 60.8 °F 100% 30.10 in 0.5 mi South 3.5 mph - N/A Fog Fog
4:27 AM 60.8 °F 60.8 °F 100% 30.10 in 0.2 mi SSE 3.5 mph - N/A Fog Fog
4:54 AM 61.0 °F 61.0 °F 100% 30.09 in 0.5 mi SSE 5.8 mph - N/A Fog Fog
5:54 AM 62.1 °F 61.0 °F 96% 30.09 in 0.8 mi South 4.6 mph - N/A   Overcast
6:45 AM 62.6 °F 62.6 °F 100% 30.10 in 0.2 mi Calm Calm - N/A Fog Fog
6:54 AM 62.1 °F 62.1 °F 100% 30.10 in 0.2 mi SSE 4.6 mph - N/A Fog Fog
7:26 AM 62.6 °F 62.6 °F 100% 30.11 in 0.2 mi SSE 4.6 mph - N/A Fog Fog
7:42 AM 62.6 °F 62.6 °F 100% 30.11 in 0.2 mi SE 3.5 mph - N/A Fog Fog
7:54 AM 63.0 °F 62.1 °F 97% 30.10 in 0.2 mi SE 5.8 mph - N/A Fog Fog
8:03 AM 62.6 °F 62.6 °F 100% 30.12 in 0.5 mi SE 4.6 mph - N/A Fog Fog
8:31 AM 62.6 °F 62.6 °F 100% 30.11 in 1.2 mi East 3.5 mph - N/A   Overcast
8:45 AM 62.6 °F 62.6 °F 100% 30.12 in 2.0 mi ESE 3.5 mph - N/A   Overcast
8:54 AM 63.0 °F 62.1 °F 97% 30.12 in 2.5 mi ESE 3.5 mph - N/A   Overcast
9:03 AM 62.6 °F 62.6 °F 100% 30.14 in 2.5 mi ESE 3.5 mph - N/A   Overcast
9:23 AM 62.6 °F 62.6 °F 100% 30.15 in 3.0 mi SE 3.5 mph - N/A   Overcast
9:54 AM 64.4 °F 62.6 °F 94% 30.14 in 3.0 mi East 4.6 mph - N/A Rain Light Rain
10:54 AM 64.9 °F 63.0 °F 93% 30.12 in 4.0 mi SSE 6.9 mph - 0.00 in   Overcast
11:40 AM 66.2 °F 64.4 °F 94% 30.11 in 5.0 mi SSE 6.9 mph - N/A   Overcast
11:54 AM 66.0 °F 63.0 °F 90% 30.10 in 5.0 mi South 5.8 mph - N/A   Overcast
12:29 PM 66.2 °F 62.6 °F 88% 30.09 in 5.0 mi SSE 5.8 mph - N/A   Overcast
12:39 PM 66.2 °F 62.6 °F 88% 30.09 in 5.0 mi SE 4.6 mph - N/A   Overcast
12:49 PM 66.2 °F 62.6 °F 88% 30.08 in 6.0 mi SE 3.5 mph - N/A   Overcast
12:54 PM 66.9 °F 63.0 °F 87% 30.07 in 6.0 mi SE 3.5 mph - N/A   Overcast
1:49 PM 68.0 °F 62.6 °F 83% 30.07 in 6.0 mi Calm Calm - 0.00 in   Haze
1:54 PM 68.0 °F 62.6 °F 83% 30.07 in 6.0 mi Calm Calm - N/A   Haze
2:12 PM 68.0 °F 62.6 °F 83% 30.07 in 6.0 mi Calm Calm - N/A   Haze
2:19 PM 68.0 °F 62.6 °F 83% 30.07 in 6.0 mi Calm Calm - N/A   Haze
2:54 PM 68.0 °F 63.0 °F 84% 30.06 in 8.0 mi Calm Calm - N/A   Mostly Cloudy
3:54 PM 66.9 °F 64.0 °F 90% 30.05 in 6.0 mi ENE 3.5 mph - N/A   Mostly Cloudy
4:54 PM 64.9 °F 63.0 °F 93% 30.02 in 2.5 mi ENE 3.5 mph - N/A   Mostly Cloudy
5:27 PM 62.6 °F 62.6 °F 100% 30.03 in 5.0 mi Calm Calm - N/A   Mostly Cloudy
5:54 PM 64.0 °F 63.0 °F 96% 30.02 in 6.0 mi Calm Calm - N/A   Scattered Clouds
6:54 PM 61.0 °F 60.1 °F 97% 30.01 in 6.0 mi Calm Calm - N/A   Clear
7:54 PM 62.1 °F 60.1 °F 93% 30.02 in 6.0 mi SE 4.6 mph - N/A   Clear
8:54 PM 63.0 °F 62.1 °F 97% 30.05 in 6.0 mi NNW 5.8 mph - N/A   Overcast
9:21 PM 62.6 °F 62.6 °F 100% 30.05 in 6.0 mi Calm Calm - N/A   Overcast
9:54 PM 63.0 °F 61.0 °F 93% 30.04 in 6.0 mi East 3.5 mph - N/A   Overcast
10:33 PM 62.6 °F 60.8 °F 94% 30.04 in 6.0 mi NNW 6.9 mph - N/A   Overcast
10:54 PM 62.1 °F 61.0 °F 96% 30.03 in 6.0 mi North 4.6 mph - N/A   Overcast
11:54 PM 62.1 °F 61.0 °F 96% 30.00 in 3.0 mi North 3.5 mph - 0.01 in   Overcast